Time,TemperatureF,DewpointF,PressureIn,WindDirection,WindDirectionDegrees,WindSpeedMPH,WindSpeedGustMPH,Humidity,HourlyPrecipIn,Conditions,Clouds,dailyrainin,SolarRadiationWatts/m^2,SoftwareType,DateUTC
2013-07-02 00:01:00,65.6,59.6,30.11,ENE,75,0.0,0.0,81,0.00,FEW,,0.00,0.0,WeatherDisplay:10.37,2013-07-02 05:01:00,
2013-07-02 00:06:00,65.5,59.2,30.11,ENE,75,0.0,0.0,80,0.00,FEW,,0.00,0.0,WeatherDisplay:10.37,2013-07-02 05:06:00,
2013-07-02 00:11:00,65.5,58.8,30.11,ENE,75,0.0,0.0,79,0.00,FEW,,0.00,0.0,WeatherDisplay:10.37,2013-07-02 05:11:00,
2013-07-02 00:16:00,65.5,58.8,30.11,ENE,75,0.0,0.0,79,0.00,FEW,,0.00,0.0,WeatherDisplay:10.37,2013-07-02 05:16:00,
2013-07-02 00:21:00,65.5,58.5,30.11,ENE,75,0.0,0.0,78,0.00,FEW,,0.00,0.0,WeatherDisplay:10.37,2013-07-02 05:21:00,
2013-07-02 00:26:00,65.3,58.6,30.11,ENE,75,0.0,0.0,79,0.00,FEW,,0.00,0.0,WeatherDisplay:10.37,2013-07-02 05:26:00,
2013-07-02 00:31:00,65.3,58.6,30.12,ENE,75,0.0,0.0,79,0.00,FEW,,0.00,0.0,WeatherDisplay:10.37,2013-07-02 05:31:00,
2013-07-02 00:36:00,65.2,58.9,30.12,ENE,75,0.0,0.0,80,0.00,FEW,,0.00,0.0,WeatherDisplay:10.37,2013-07-02 05:36:00,
2013-07-02 00:41:00,65.0,58.7,30.12,ENE,75,0.0,0.0,80,0.00,FEW,,0.00,0.0,WeatherDisplay:10.37,2013-07-02 05:41:00,
2013-07-02 00:46:00,64.8,58.5,30.11,ENE,75,0.0,0.0,80,0.00,FEW,,0.00,0.0,WeatherDisplay:10.37,2013-07-02 05:46:00,
2013-07-02 00:51:00,64.7,58.4,30.11,ENE,75,0.0,0.0,80,0.00,FEW,,0.00,0.0,WeatherDisplay:10.37,2013-07-02 05:51:00,
2013-07-02 00:56:00,64.7,58.7,30.11,ENE,75,0.0,0.0,81,0.00,FEW,,0.00,0.0,WeatherDisplay:10.37,2013-07-02 05:56:00,
2013-07-02 01:01:00,64.5,58.9,30.12,ENE,75,0.0,0.0,82,0.00,FEW,,0.00,0.0,WeatherDisplay:10.37,2013-07-02 06:01:00,
2013-07-02 01:06:00,64.3,58.7,30.12,ENE,75,0.0,0.0,82,0.00,FEW,,0.00,0.0,WeatherDisplay:10.37,2013-07-02 06:06:00,
2013-07-02 01:11:00,64.2,58.6,30.12,ENE,75,0.0,0.0,82,0.00,FEW,,0.00,0.0,WeatherDisplay:10.37,2013-07-02 06:11:00,
2013-07-02 01:16:00,64.0,58.7,30.12,ENE,75,0.0,0.0,83,0.00,FEW,,0.00,0.0,WeatherDisplay:10.37,2013-07-02 06:16:00,
2013-07-02 01:21:00,63.7,58.4,30.12,ENE,75,0.0,0.0,83,0.00,FEW,,0.00,0.0,WeatherDisplay:10.37,2013-07-02 06:21:00,
2013-07-02 01:26:00,63.5,58.6,30.12,ENE,75,0.0,0.0,84,0.00,FEW,,0.00,0.0,WeatherDisplay:10.37,2013-07-02 06:26:00,
2013-07-02 01:31:00,63.2,58.3,30.11,ENE,75,0.0,0.0,84,0.00,FEW,,0.00,0.0,WeatherDisplay:10.37,2013-07-02 06:31:00,
2013-07-02 01:36:00,63.1,58.2,30.11,ENE,75,0.0,0.0,84,0.00,FEW,,0.00,0.0,WeatherDisplay:10.37,2013-07-02 06:36:00,
2013-07-02 01:41:00,62.9,58.0,30.11,ENE,75,0.0,0.0,84,0.00,FEW,,0.00,0.0,WeatherDisplay:10.37,2013-07-02 06:41:00,
2013-07-02 01:46:00,62.9,58.3,30.11,ENE,75,0.0,0.0,85,0.00,FEW,,0.00,0.0,WeatherDisplay:10.37,2013-07-02 06:46:00,
2013-07-02 01:51:00,62.7,58.5,30.11,ENE,75,0.0,0.0,86,0.00,FEW,,0.00,0.0,WeatherDisplay:10.37,2013-07-02 06:51:00,
2013-07-02 01:56:00,62.4,58.2,30.11,ENE,75,0.0,0.0,86,0.00,FEW,,0.00,0.0,WeatherDisplay:10.37,2013-07-02 06:56:00,
2013-07-02 02:01:00,62.1,57.9,30.11,ENE,75,0.0,0.0,86,0.00,FEW,,0.00,0.0,WeatherDisplay:10.37,2013-07-02 07:01:00,
2013-07-02 02:06:00,62.0,58.1,30.11,ENE,75,0.0,0.0,87,0.00,FEW,,0.00,0.0,WeatherDisplay:10.37,2013-07-02 07:06:00,
2013-07-02 02:11:00,61.8,57.6,30.11,ENE,75,0.0,0.0,86,0.00,FEW,,0.00,0.0,WeatherDisplay:10.37,2013-07-02 07:11:00,
2013-07-02 02:16:00,61.8,57.6,30.11,ENE,75,0.0,0.0,86,0.00,FEW,,0.00,0.0,WeatherDisplay:10.37,2013-07-02 07:16:00,
2013-07-02 02:21:00,61.6,57.0,30.11,ENE,75,0.0,0.0,85,0.00,FEW,,0.00,0.0,WeatherDisplay:10.37,2013-07-02 07:21:00,
2013-07-02 02:26:00,61.6,57.4,30.11,ENE,75,0.0,0.0,86,0.00,FEW,,0.00,0.0,WeatherDisplay:10.37,2013-07-02 07:26:00,
2013-07-02 02:31:00,61.8,57.9,30.10,ENE,75,0.0,0.0,87,0.00,FEW,,0.00,0.0,WeatherDisplay:10.37,2013-07-02 07:31:00,
2013-07-02 02:36:00,61.5,57.6,30.10,ENE,75,0.0,0.0,87,0.00,FEW,,0.00,0.0,WeatherDisplay:10.37,2013-07-02 07:36:00,
2013-07-02 02:41:00,61.2,57.3,30.10,ENE,75,0.0,0.0,87,0.00,FEW,,0.00,0.0,WeatherDisplay:10.37,2013-07-02 07:41:00,
2013-07-02 02:46:00,61.2,57.3,30.10,ENE,75,0.0,0.0,87,0.00,FEW,,0.00,0.0,WeatherDisplay:10.37,2013-07-02 07:46:00,
2013-07-02 02:51:00,61.0,57.1,30.10,ENE,75,0.0,0.0,87,0.00,FEW,,0.00,0.0,WeatherDisplay:10.37,2013-07-02 07:51:00,
2013-07-02 02:56:00,61.0,57.4,30.10,ENE,75,0.0,0.0,88,0.00,FEW,,0.00,0.0,WeatherDisplay:10.37,2013-07-02 07:56:00,
2013-07-02 03:01:00,60.9,57.3,30.10,ENE,75,0.0,0.0,88,0.00,FEW,,0.00,0.0,WeatherDisplay:10.37,2013-07-02 08:01:00,
2013-07-02 03:06:00,60.9,57.6,30.10,ENE,75,0.0,0.0,89,0.00,FEW,,0.00,0.0,WeatherDisplay:10.37,2013-07-02 08:06:00,
2013-07-02 03:11:00,60.7,57.7,30.10,ENE,75,0.0,0.0,90,0.00,FEW,,0.00,0.0,WeatherDisplay:10.37,2013-07-02 08:11:00,
2013-07-02 03:16:00,60.5,57.6,30.09,ENE,75,0.0,0.0,90,0.00,FEW,,0.00,0.0,WeatherDisplay:10.37,2013-07-02 08:16:00,
2013-07-02 03:21:00,60.5,57.9,30.09,ENE,75,0.0,0.0,91,0.00,FEW,,0.00,0.0,WeatherDisplay:10.37,2013-07-02 08:21:00,
2013-07-02 03:26:00,60.4,57.8,30.09,ENE,75,0.0,0.0,91,0.00,FEW,,0.00,0.0,WeatherDisplay:10.37,2013-07-02 08:26:00,
2013-07-02 03:31:00,60.1,57.5,30.09,ENE,75,0.0,0.0,91,0.00,FEW,,0.00,0.0,WeatherDisplay:10.37,2013-07-02 08:31:00,
2013-07-02 03:36:00,59.8,57.2,30.09,ENE,75,0.0,0.0,91,0.00,FEW,,0.00,0.0,WeatherDisplay:10.37,2013-07-02 08:36:00,
2013-07-02 03:41:00,59.6,57.0,30.09,ENE,75,0.0,0.0,91,0.00,FEW,,0.00,0.0,WeatherDisplay:10.37,2013-07-02 08:41:00,
2013-07-02 03:46:00,59.3,57.0,30.10,ENE,75,0.0,0.0,92,0.00,FEW,,0.00,0.0,WeatherDisplay:10.37,2013-07-02 08:46:00,
2013-07-02 03:51:00,59.2,56.9,30.10,ENE,75,0.0,0.0,92,0.00,FEW,,0.00,0.0,WeatherDisplay:10.37,2013-07-02 08:51:00,
2013-07-02 03:56:00,59.0,56.7,30.10,ENE,75,0.0,0.0,92,0.00,FEW,,0.00,0.0,WeatherDisplay:10.37,2013-07-02 08:56:00,
2013-07-02 04:01:00,58.7,56.4,30.10,ENE,75,0.0,0.0,92,0.00,FEW,,0.00,0.0,WeatherDisplay:10.37,2013-07-02 09:01:00,
2013-07-02 04:06:00,58.6,56.3,30.10,ENE,75,0.0,0.0,92,0.00,FEW,,0.00,0.0,WeatherDisplay:10.37,2013-07-02 09:06:00,
2013-07-02 04:11:00,58.3,56.0,30.10,ENE,75,0.0,0.0,92,0.00,FEW,,0.00,0.0,WeatherDisplay:10.37,2013-07-02 09:11:00,
2013-07-02 04:16:00,58.1,55.8,30.10,ENE,75,0.0,0.0,92,0.00,FEW,,0.00,0.0,WeatherDisplay:10.37,2013-07-02 09:16:00,
2013-07-02 04:21:00,57.8,55.5,30.10,ENE,75,0.0,0.0,92,0.00,FEW,,0.00,0.0,WeatherDisplay:10.37,2013-07-02 09:21:00,
2013-07-02 04:26:00,57.6,55.3,30.10,ENE,75,0.0,0.0,92,0.00,FEW,,0.00,0.0,WeatherDisplay:10.37,2013-07-02 09:26:00,
2013-07-02 04:31:00,57.5,55.2,30.10,ENE,75,0.0,0.0,92,0.00,FEW,,0.00,0.0,WeatherDisplay:10.37,2013-07-02 09:31:00,
2013-07-02 04:36:00,57.3,55.0,30.10,ENE,75,0.0,0.0,92,0.00,FEW,,0.00,0.0,WeatherDisplay:10.37,2013-07-02 09:36:00,
2013-07-02 04:41:00,57.2,55.2,30.10,ENE,75,0.0,0.0,93,0.00,FEW,,0.00,0.0,WeatherDisplay:10.37,2013-07-02 09:41:00,
2013-07-02 04:46:00,57.2,54.9,30.10,ENE,75,0.0,0.0,92,0.00,FEW,,0.00,0.0,WeatherDisplay:10.37,2013-07-02 09:46:00,
2013-07-02 04:51:00,57.0,54.7,30.10,ENE,75,0.0,0.0,92,0.00,FEW,,0.00,0.0,WeatherDisplay:10.37,2013-07-02 09:51:00,
2013-07-02 04:56:00,56.9,54.6,30.10,ENE,75,0.0,0.0,92,0.00,FEW,,0.00,0.0,WeatherDisplay:10.37,2013-07-02 09:56:00,
2013-07-02 05:01:00,56.9,54.6,30.10,ENE,75,0.0,0.0,92,0.00,FEW,,0.00,0.0,WeatherDisplay:10.37,2013-07-02 10:01:00,
2013-07-02 05:06:00,56.7,54.4,30.10,ENE,75,0.0,0.0,92,0.00,FEW,,0.00,0.0,WeatherDisplay:10.37,2013-07-02 10:06:00,
2013-07-02 05:11:00,56.7,54.4,30.10,ENE,75,0.0,0.0,92,0.00,FEW,,0.00,0.0,WeatherDisplay:10.37,2013-07-02 10:11:00,
2013-07-02 05:16:00,56.7,54.4,30.10,ENE,75,0.0,0.0,92,0.00,FEW,,0.00,0.0,WeatherDisplay:10.37,2013-07-02 10:16:00,
2013-07-02 05:21:00,56.9,54.6,30.10,ENE,75,0.0,0.0,92,0.00,FEW,,0.00,0.0,WeatherDisplay:10.37,2013-07-02 10:21:00,
2013-07-02 05:26:00,56.9,54.6,30.10,ENE,75,0.0,0.0,92,0.00,FEW,,0.00,5.0,WeatherDisplay:10.37,2013-07-02 10:26:00,
2013-07-02 05:31:00,56.7,54.4,30.10,ENE,75,0.0,0.0,92,0.00,FEW,,0.00,5.0,WeatherDisplay:10.37,2013-07-02 10:31:00,
2013-07-02 05:36:00,56.6,54.3,30.10,ENE,74,0.0,0.0,92,0.00,FEW,,0.00,9.0,WeatherDisplay:10.37,2013-07-02 10:36:00,
2013-07-02 05:41:00,56.5,54.2,30.10,ENE,61,0.0,0.0,92,0.00,FEW,,0.00,11.0,WeatherDisplay:10.37,2013-07-02 10:41:00,
2013-07-02 05:46:00,56.5,54.2,30.10,ENE,61,0.0,0.0,92,0.00,FEW,,0.00,12.0,WeatherDisplay:10.37,2013-07-02 10:46:00,
2013-07-02 05:51:00,56.3,54.0,30.10,NE,56,0.0,0.0,92,0.00,FEW,,0.00,14.0,WeatherDisplay:10.37,2013-07-02 10:51:00,
2013-07-02 05:56:00,56.3,54.0,30.10,NE,56,0.0,0.0,92,0.00,FEW,,0.00,18.0,WeatherDisplay:10.37,2013-07-02 10:56:00,
2013-07-02 06:01:00,56.3,54.0,30.11,NE,56,0.0,0.0,92,0.00,FEW,,0.00,19.0,WeatherDisplay:10.37,2013-07-02 11:01:00,
2013-07-02 06:06:00,56.3,54.0,30.11,NE,56,0.0,0.0,92,0.00,FEW,,0.00,23.0,WeatherDisplay:10.37,2013-07-02 11:06:00,
2013-07-02 06:11:00,56.5,54.2,30.11,NE,56,0.0,0.0,92,0.00,FEW,,0.00,26.0,WeatherDisplay:10.37,2013-07-02 11:11:00,
2013-07-02 06:16:00,56.6,54.3,30.11,NE,56,0.0,0.0,92,0.00,FEW,,0.00,26.0,WeatherDisplay:10.37,2013-07-02 11:16:00,
2013-07-02 06:21:00,56.6,54.0,30.11,NE,56,0.0,0.0,91,0.00,FEW,,0.00,30.0,WeatherDisplay:10.37,2013-07-02 11:21:00,
2013-07-02 06:26:00,56.7,54.1,30.11,NE,56,0.0,0.0,91,0.00,FEW,,0.00,33.0,WeatherDisplay:10.37,2013-07-02 11:26:00,
2013-07-02 06:31:00,56.7,54.1,30.12,NE,56,0.0,0.0,91,0.00,FEW,,0.00,42.0,WeatherDisplay:10.37,2013-07-02 11:31:00,
2013-07-02 06:36:00,56.9,54.3,30.12,NE,56,0.0,0.0,91,0.00,FEW,,0.00,63.0,WeatherDisplay:10.37,2013-07-02 11:36:00,
2013-07-02 06:41:00,57.0,54.4,30.12,NE,56,0.0,0.0,91,0.00,FEW,,0.00,81.0,WeatherDisplay:10.37,2013-07-02 11:41:00,
2013-07-02 06:46:00,57.3,54.7,30.12,NE,56,0.0,0.0,91,0.00,FEW,,0.00,102.0,WeatherDisplay:10.37,2013-07-02 11:46:00,
2013-07-02 06:51:00,57.6,54.7,30.12,NE,56,0.0,0.0,90,0.00,FEW,,0.00,113.0,WeatherDisplay:10.37,2013-07-02 11:51:00,
2013-07-02 06:56:00,58.1,55.2,30.12,NE,56,0.0,0.0,90,0.00,FEW,,0.00,223.0,WeatherDisplay:10.37,2013-07-02 11:56:00,
2013-07-02 07:01:00,58.6,55.4,30.12,NE,56,0.0,0.0,89,0.00,FEW,,0.00,148.0,WeatherDisplay:10.37,2013-07-02 12:01:00,
2013-07-02 07:06:00,59.2,55.6,30.12,NE,56,0.0,0.0,88,0.00,FEW,,0.00,264.0,WeatherDisplay:10.37,2013-07-02 12:06:00,
2013-07-02 07:11:00,59.9,55.7,30.12,NE,56,0.0,0.0,86,0.00,FEW,,0.00,121.0,WeatherDisplay:10.37,2013-07-02 12:11:00,
2013-07-02 07:16:00,60.5,55.6,30.12,NE,56,0.0,0.0,84,0.00,FEW,,0.00,287.0,WeatherDisplay:10.37,2013-07-02 12:16:00,
2013-07-02 07:21:00,61.0,55.8,30.12,ENE,66,0.0,0.0,83,0.00,FEW,,0.00,322.0,WeatherDisplay:10.37,2013-07-02 12:21:00,
2013-07-02 07:26:00,61.3,55.1,30.12,ENE,67,0.0,0.0,80,0.00,FEW,,0.00,169.0,WeatherDisplay:10.37,2013-07-02 12:26:00,
2013-07-02 07:31:00,61.3,55.1,30.12,ENE,67,0.0,0.0,80,0.00,FEW,,0.00,127.0,WeatherDisplay:10.37,2013-07-02 12:31:00,
2013-07-02 07:36:00,61.3,55.1,30.12,ENE,71,0.0,0.0,80,0.00,FEW,,0.00,357.0,WeatherDisplay:10.37,2013-07-02 12:36:00,
2013-07-02 07:41:00,61.6,55.4,30.12,ENE,71,0.0,0.0,80,0.00,FEW,,0.00,334.0,WeatherDisplay:10.37,2013-07-02 12:41:00,
2013-07-02 07:46:00,62.0,55.8,30.12,ENE,71,0.0,0.0,80,0.00,FEW,,0.00,408.0,WeatherDisplay:10.37,2013-07-02 12:46:00,
2013-07-02 07:51:00,62.4,55.8,30.12,ENE,71,0.0,0.0,79,0.00,FEW,,0.00,424.0,WeatherDisplay:10.37,2013-07-02 12:51:00,
2013-07-02 07:56:00,62.7,55.7,30.12,East,84,0.0,0.0,78,0.00,FEW,,0.00,396.0,WeatherDisplay:10.37,2013-07-02 12:56:00,
2013-07-02 08:01:00,62.6,55.3,30.12,East,82,0.6,3.5,77,0.00,FEW,,0.00,387.0,WeatherDisplay:10.37,2013-07-02 13:01:00,
2013-07-02 08:06:00,62.7,55.7,30.12,SE,127,0.1,1.2,78,0.00,FEW,,0.00,311.0,WeatherDisplay:10.37,2013-07-02 13:06:00,
2013-07-02 08:11:00,62.9,55.9,30.12,ESE,105,1.9,5.8,78,0.00,FEW,,0.00,429.0,WeatherDisplay:10.37,2013-07-02 13:11:00,
2013-07-02 08:16:00,63.2,55.9,30.12,ENE,67,0.0,1.2,77,0.00,FEW,,0.00,439.0,WeatherDisplay:10.37,2013-07-02 13:16:00,
2013-07-02 08:21:00,63.4,56.1,30.12,East,86,0.1,3.5,77,0.00,FEW,,0.00,204.0,WeatherDisplay:10.37,2013-07-02 13:21:00,
2013-07-02 08:26:00,63.5,56.2,30.12,East,86,0.0,0.0,77,0.00,SCT,,0.00,475.0,WeatherDisplay:10.37,2013-07-02 13:26:00,
2013-07-02 08:31:00,64.0,56.6,30.12,East,86,0.0,0.0,77,0.00,CLR,,0.00,490.0,WeatherDisplay:10.37,2013-07-02 13:31:00,
2013-07-02 08:36:00,64.5,56.4,30.12,East,80,0.0,2.3,75,0.00,CLR,,0.00,504.0,WeatherDisplay:10.37,2013-07-02 13:36:00,
2013-07-02 08:41:00,64.8,56.7,30.12,East,80,0.0,0.0,75,0.00,CLR,,0.00,524.0,WeatherDisplay:10.37,2013-07-02 13:41:00,
2013-07-02 08:46:00,65.5,57.0,30.12,East,80,0.1,1.2,74,0.00,CLR,,0.00,534.0,WeatherDisplay:10.37,2013-07-02 13:46:00,
2013-07-02 08:51:00,66.0,57.1,30.12,East,80,0.0,0.0,73,0.00,CLR,,0.00,548.0,WeatherDisplay:10.37,2013-07-02 13:51:00,
2013-07-02 08:56:00,66.4,57.1,30.12,East,80,0.0,1.2,72,0.00,CLR,,0.00,557.0,WeatherDisplay:10.37,2013-07-02 13:56:00,
2013-07-02 09:01:00,66.8,57.1,30.12,East,82,0.1,1.2,71,0.00,CLR,,0.00,587.0,WeatherDisplay:10.37,2013-07-02 14:01:00,
2013-07-02 09:06:00,66.8,56.7,30.12,East,95,1.8,4.8,70,0.00,CLR,,0.00,596.0,WeatherDisplay:10.37,2013-07-02 14:06:00,
2013-07-02 09:11:00,66.8,57.1,30.12,East,94,0.0,0.0,71,0.00,CLR,,0.00,612.0,WeatherDisplay:10.37,2013-07-02 14:11:00,
2013-07-02 09:16:00,67.1,57.4,30.12,East,94,0.1,1.2,71,0.00,CLR,,0.00,645.0,WeatherDisplay:10.37,2013-07-02 14:16:00,
2013-07-02 09:21:00,67.3,57.6,30.12,East,90,0.6,6.0,71,0.00,CLR,,0.00,633.0,WeatherDisplay:10.37,2013-07-02 14:21:00,
2013-07-02 09:26:00,67.1,57.0,30.12,ESE,109,0.6,5.8,70,0.00,CLR,,0.00,631.0,WeatherDisplay:10.37,2013-07-02 14:26:00,
2013-07-02 09:31:00,67.8,58.1,30.12,ESE,109,0.0,0.0,71,0.00,CLR,,0.00,659.0,WeatherDisplay:10.37,2013-07-02 14:31:00,
2013-07-02 09:36:00,68.4,57.8,30.12,ENE,76,0.0,5.8,69,0.00,CLR,,0.00,663.0,WeatherDisplay:10.37,2013-07-02 14:36:00,
2013-07-02 09:41:00,68.9,58.3,30.12,East,80,0.0,1.2,69,0.00,CLR,,0.00,686.0,WeatherDisplay:10.37,2013-07-02 14:41:00,
2013-07-02 09:46:00,69.3,57.9,30.12,ENE,75,0.0,1.2,67,0.00,CLR,,0.00,689.0,WeatherDisplay:10.37,2013-07-02 14:46:00,
2013-07-02 09:52:00,69.4,57.5,30.12,East,79,0.1,1.2,66,0.00,FEW,,0.00,671.0,WeatherDisplay:10.37,2013-07-02 14:52:00,
2013-07-02 09:57:00,69.4,57.5,30.12,ESE,107,0.1,1.2,66,0.00,FEW,,0.00,694.0,WeatherDisplay:10.37,2013-07-02 14:57:00,
2013-07-02 10:02:00,69.8,57.1,30.12,East,88,0.0,0.0,64,0.00,FEW,,0.00,701.0,WeatherDisplay:10.37,2013-07-02 15:02:00,
2013-07-02 10:07:00,69.9,57.6,30.12,South,175,1.9,4.8,65,0.00,FEW,,0.00,712.0,WeatherDisplay:10.37,2013-07-02 15:07:00,
2013-07-02 10:12:00,69.6,56.9,30.12,South,178,0.1,1.2,64,0.00,FEW,,0.00,698.0,WeatherDisplay:10.37,2013-07-02 15:12:00,
2013-07-02 10:17:00,69.6,56.0,30.11,South,178,0.0,1.2,62,0.00,FEW,,0.00,745.0,WeatherDisplay:10.37,2013-07-02 15:17:00,
2013-07-02 10:22:00,70.3,55.8,30.11,East,85,0.1,1.2,60,0.00,FEW,,0.00,673.0,WeatherDisplay:10.37,2013-07-02 15:22:00,
2013-07-02 10:27:00,70.8,56.2,30.11,NE,55,0.0,0.0,60,0.00,SCT,,0.00,659.0,WeatherDisplay:10.37,2013-07-02 15:27:00,
2013-07-02 10:32:00,71.1,56.0,30.11,East,82,0.4,1.2,59,0.00,SCT,,0.00,756.0,WeatherDisplay:10.37,2013-07-02 15:32:00,
2013-07-02 10:37:00,71.6,56.5,30.11,ENE,75,0.1,0.0,59,0.00,FEW,,0.00,765.0,WeatherDisplay:10.37,2013-07-02 15:37:00,
2013-07-02 10:42:00,71.8,56.2,30.11,South,179,0.1,1.2,58,0.00,SCT,,0.00,635.0,WeatherDisplay:10.37,2013-07-02 15:42:00,
2013-07-02 10:47:00,70.6,54.6,30.11,SSW,196,0.7,1.2,57,0.00,SCT,,0.00,731.0,WeatherDisplay:10.37,2013-07-02 15:47:00,
2013-07-02 10:52:00,71.5,55.5,30.11,ESE,103,0.0,0.0,57,0.00,SCT,,0.00,765.0,WeatherDisplay:10.37,2013-07-02 15:52:00,
2013-07-02 10:57:00,71.8,54.8,30.11,NE,38,0.2,1.2,55,0.00,SCT,,0.00,647.0,WeatherDisplay:10.37,2013-07-02 15:57:00,
2013-07-02 11:02:00,72.0,54.9,30.11,East,98,0.9,4.8,55,0.00,SCT,,0.00,668.0,WeatherDisplay:10.37,2013-07-02 16:02:00,
2013-07-02 11:07:00,72.1,55.5,30.11,East,80,0.0,1.2,56,0.00,SCT,,0.00,833.0,WeatherDisplay:10.37,2013-07-02 16:07:00,
2013-07-02 11:12:00,72.3,55.2,30.11,SSE,164,0.6,4.6,55,0.00,SCT,,0.00,821.0,WeatherDisplay:10.37,2013-07-02 16:12:00,
2013-07-02 11:17:00,72.8,54.1,30.11,ENE,65,0.0,0.0,52,0.00,SCT,,0.00,759.0,WeatherDisplay:10.37,2013-07-02 16:17:00,
2013-07-02 11:22:00,73.0,55.4,30.11,East,81,0.2,2.4,54,0.00,SCT,,0.00,719.0,WeatherDisplay:10.37,2013-07-02 16:22:00,
2013-07-02 11:27:00,73.3,55.1,30.11,East,79,0.0,1.2,53,0.00,SCT,,0.00,879.0,WeatherDisplay:10.37,2013-07-02 16:27:00,
2013-07-02 11:32:00,74.4,54.0,30.11,East,80,0.1,0.0,49,0.00,FEW,,0.00,853.0,WeatherDisplay:10.37,2013-07-02 16:32:00,
2013-07-02 11:37:00,73.7,53.9,30.11,ENE,76,0.0,1.2,50,0.00,SCT,,0.00,793.0,WeatherDisplay:10.37,2013-07-02 16:37:00,
2013-07-02 11:42:00,74.7,55.4,30.11,NE,56,0.0,1.2,51,0.00,SCT,,0.00,703.0,WeatherDisplay:10.37,2013-07-02 16:42:00,
2013-07-02 11:47:00,73.9,55.7,30.10,South,184,0.1,4.6,53,0.00,SCT,,0.00,780.0,WeatherDisplay:10.37,2013-07-02 16:47:00,
2013-07-02 11:52:00,74.2,54.9,30.10,East,80,0.0,1.2,51,0.00,SCT,,0.00,858.0,WeatherDisplay:10.37,2013-07-02 16:52:00,
2013-07-02 11:57:00,75.6,57.3,30.10,East,80,0.0,0.0,53,0.00,SCT,,0.00,846.0,WeatherDisplay:10.37,2013-07-02 16:57:00,
2013-07-02 12:02:00,75.3,56.5,30.10,East,84,0.1,1.2,52,0.00,SCT,,0.00,907.0,WeatherDisplay:10.37,2013-07-02 17:02:00,
2013-07-02 12:07:00,75.3,57.5,30.10,East,95,0.0,0.0,54,0.00,SCT,,0.00,826.0,WeatherDisplay:10.37,2013-07-02 17:07:00,
2013-07-02 12:12:00,75.3,55.9,30.10,SE,138,0.0,1.2,51,0.00,SCT,,0.00,900.0,WeatherDisplay:10.37,2013-07-02 17:12:00,
2013-07-02 12:17:00,76.5,57.0,30.10,SE,138,0.0,0.0,51,0.00,SCT,,0.00,912.0,WeatherDisplay:10.37,2013-07-02 17:17:00,
2013-07-02 12:22:00,76.7,56.7,30.10,SE,138,0.0,0.0,50,0.00,SCT,,0.00,851.0,WeatherDisplay:10.37,2013-07-02 17:22:00,
2013-07-02 12:27:00,76.3,55.7,30.10,NE,44,0.0,0.0,49,0.00,SCT,,0.00,831.0,WeatherDisplay:10.37,2013-07-02 17:27:00,
2013-07-02 12:32:00,76.8,55.6,30.10,NE,55,0.0,1.2,48,0.00,SCT,,0.00,772.0,WeatherDisplay:10.37,2013-07-02 17:32:00,
2013-07-02 12:37:00,76.0,56.0,30.10,East,92,0.0,0.0,50,0.00,SCT,,0.00,826.0,WeatherDisplay:10.37,2013-07-02 17:37:00,
2013-07-02 12:42:00,76.3,55.2,30.10,ENE,63,0.0,1.2,48,0.00,SCT,,0.00,803.0,WeatherDisplay:10.37,2013-07-02 17:42:00,
2013-07-02 12:47:00,76.0,54.9,30.10,SSE,154,0.8,1.2,48,0.00,SCT,,0.00,777.0,WeatherDisplay:10.37,2013-07-02 17:47:00,
2013-07-02 12:52:00,76.1,53.2,30.10,North,11,0.0,1.2,45,0.00,SCT,,0.00,754.0,WeatherDisplay:10.37,2013-07-02 17:52:00,
2013-07-02 12:57:00,75.8,53.5,30.10,East,86,2.6,8.4,46,0.00,SCT,,0.00,640.0,WeatherDisplay:10.37,2013-07-02 17:57:00,
2013-07-02 13:02:00,76.0,56.0,30.10,ENE,68,0.0,1.2,50,0.00,SCT,,0.00,698.0,WeatherDisplay:10.37,2013-07-02 18:02:00,
2013-07-02 13:07:00,76.0,55.5,30.10,ENE,65,0.0,1.2,49,0.00,SCT,,0.00,573.0,WeatherDisplay:10.37,2013-07-02 18:07:00,
2013-07-02 13:12:00,75.4,55.5,30.10,East,79,0.0,1.2,50,0.00,SCT,,0.00,717.0,WeatherDisplay:10.37,2013-07-02 18:12:00,
2013-07-02 13:17:00,76.0,54.9,30.10,East,82,0.3,2.4,48,0.00,SCT,,0.00,770.0,WeatherDisplay:10.37,2013-07-02 18:17:00,
2013-07-02 13:22:00,75.4,54.9,30.10,NE,47,0.5,2.4,49,0.00,SCT,,0.00,895.0,WeatherDisplay:10.37,2013-07-02 18:22:00,
2013-07-02 13:27:00,74.6,54.7,30.10,East,91,0.7,0.0,50,0.00,SCT,,0.00,814.0,WeatherDisplay:10.37,2013-07-02 18:27:00,
2013-07-02 13:32:00,75.3,55.9,30.09,ENE,75,0.0,0.0,51,0.00,SCT,,0.00,772.0,WeatherDisplay:10.37,2013-07-02 18:32:00,
2013-07-02 13:37:00,75.6,56.2,30.09,ENE,65,0.0,0.0,51,0.00,SCT,,0.00,698.0,WeatherDisplay:10.37,2013-07-02 18:37:00,
2013-07-02 13:42:00,75.8,55.3,30.09,East,87,6.0,8.0,49,0.00,SCT,,0.00,759.0,WeatherDisplay:10.37,2013-07-02 18:42:00,
2013-07-02 13:47:00,75.7,55.1,30.09,ENE,70,1.0,5.0,49,0.00,SCT,,0.00,638.0,WeatherDisplay:10.37,2013-07-02 18:47:00,
2013-07-02 13:52:00,76.0,56.0,30.09,NE,52,1.0,2.0,50,0.00,SCT,,0.00,689.0,WeatherDisplay:10.37,2013-07-02 18:52:00,
2013-07-02 13:57:00,76.5,55.3,30.09,ENE,66,0.0,1.0,48,0.00,SCT,,0.00,694.0,WeatherDisplay:10.37,2013-07-02 18:57:00,
2013-07-02 14:02:00,76.1,56.1,30.09,NE,41,0.0,0.0,50,0.00,BKN,,0.00,352.0,WeatherDisplay:10.37,2013-07-02 19:02:00,
2013-07-02 14:07:00,76.0,56.6,30.09,NE,34,0.5,1.2,51,0.00,BKN,,0.00,548.0,WeatherDisplay:10.37,2013-07-02 19:07:00,
2013-07-02 14:12:00,75.6,55.6,30.09,ENE,69,0.0,0.0,50,0.00,BKN,,0.00,283.0,WeatherDisplay:10.37,2013-07-02 19:12:00,
2013-07-02 14:17:00,75.4,55.4,30.09,ENE,72,1.0,7.0,50,0.00,BKN,,0.00,543.0,WeatherDisplay:10.37,2013-07-02 19:17:00,
2013-07-02 14:22:00,74.9,54.5,30.09,ENE,78,1.0,10.0,49,0.00,SCT,,0.00,626.0,WeatherDisplay:10.37,2013-07-02 19:22:00,
2013-07-02 14:27:00,75.4,55.5,30.09,East,90,1.0,13.0,50,0.00,SCT,,0.00,376.0,WeatherDisplay:10.37,2013-07-02 19:27:00,
2013-07-02 14:32:00,75.3,56.5,30.09,NE,40,0.0,0.0,52,0.00,BKN,,0.00,418.0,WeatherDisplay:10.37,2013-07-02 19:32:00,
2013-07-02 14:37:00,75.8,54.7,30.09,NNW,343,0.0,1.2,48,0.00,SCT,,0.00,619.0,WeatherDisplay:10.37,2013-07-02 19:37:00,
2013-07-02 14:42:00,76.1,55.0,30.09,North,359,0.0,4.0,48,0.00,SCT,,0.00,758.0,WeatherDisplay:10.37,2013-07-02 19:42:00,
2013-07-02 14:47:00,76.0,55.5,30.09,ENE,68,1.0,11.0,49,0.00,SCT,,0.00,742.0,WeatherDisplay:10.37,2013-07-02 19:47:00,
2013-07-02 14:52:00,75.4,54.3,30.09,ENE,74,1.0,10.0,48,0.00,SCT,,0.00,737.0,WeatherDisplay:10.37,2013-07-02 19:52:00,
2013-07-02 14:57:00,75.8,55.8,30.09,East,79,2.0,7.0,50,0.00,SCT,,0.00,737.0,WeatherDisplay:10.37,2013-07-02 19:57:00,
2013-07-02 15:02:00,76.5,54.2,30.08,NE,50,2.7,5.8,46,0.00,SCT,,0.00,694.0,WeatherDisplay:10.37,2013-07-02 20:02:00,
2013-07-02 15:07:00,77.4,54.4,30.08,NE,42,4.3,4.8,45,0.00,SCT,,0.00,700.0,WeatherDisplay:10.37,2013-07-02 20:07:00,
2013-07-02 15:12:00,76.8,55.6,30.08,ENE,72,0.0,0.0,48,0.00,SCT,,0.00,693.0,WeatherDisplay:10.37,2013-07-02 20:12:00,
2013-07-02 15:17:00,76.4,54.1,30.08,ENE,61,0.0,11.0,46,0.00,BKN,,0.00,269.0,WeatherDisplay:10.37,2013-07-02 20:17:00,
2013-07-02 15:22:00,75.8,54.1,30.08,ENE,59,0.8,1.2,47,0.00,BKN,,0.00,696.0,WeatherDisplay:10.37,2013-07-02 20:22:00,
2013-07-02 15:27:00,75.8,55.3,30.08,East,101,0.0,4.6,49,0.00,SCT,,0.00,675.0,WeatherDisplay:10.37,2013-07-02 20:27:00,
2013-07-02 15:32:00,76.3,54.6,30.08,ENE,57,0.0,0.0,47,0.00,SCT,,0.00,643.0,WeatherDisplay:10.37,2013-07-02 20:32:00,
2013-07-02 15:37:00,76.3,55.2,30.08,NW,324,0.0,1.2,48,0.00,BKN,,0.00,345.0,WeatherDisplay:10.37,2013-07-02 20:37:00,
2013-07-02 15:42:00,76.0,53.7,30.08,North,349,0.1,3.5,46,0.00,BKN,,0.00,578.0,WeatherDisplay:10.37,2013-07-02 20:42:00,
2013-07-02 15:47:00,76.0,53.1,30.08,NNW,338,0.0,4.0,45,0.00,SCT,,0.00,570.0,WeatherDisplay:10.37,2013-07-02 20:47:00,
2013-07-02 15:52:00,76.0,53.1,30.08,NE,50,0.8,3.5,45,0.00,SCT,,0.00,575.0,WeatherDisplay:10.37,2013-07-02 20:52:00,
2013-07-02 15:57:00,76.0,52.5,30.08,ENE,58,0.0,0.0,44,0.00,SCT,,0.00,550.0,WeatherDisplay:10.37,2013-07-02 20:57:00,
2013-07-02 16:02:00,76.5,53.6,30.07,ENE,58,0.0,1.2,45,0.00,SCT,,0.00,504.0,WeatherDisplay:10.37,2013-07-02 21:02:00,
2013-07-02 16:07:00,77.0,52.8,30.07,ENE,59,0.0,1.2,43,0.00,SCT,,0.00,454.0,WeatherDisplay:10.37,2013-07-02 21:07:00,
2013-07-02 16:12:00,77.2,52.3,30.07,NE,38,0.1,1.2,42,0.00,SCT,,0.00,469.0,WeatherDisplay:10.37,2013-07-02 21:12:00,
2013-07-02 16:17:00,77.2,53.6,30.07,NE,46,0.0,1.0,44,0.00,SCT,,0.00,450.0,WeatherDisplay:10.37,2013-07-02 21:17:00,
2013-07-02 16:22:00,77.4,53.8,30.07,NE,42,0.0,1.0,44,0.00,SCT,,0.00,459.0,WeatherDisplay:10.37,2013-07-02 21:22:00,
2013-07-02 16:27:00,77.4,53.1,30.07,NW,321,0.0,0.0,43,0.00,SCT,,0.00,476.0,WeatherDisplay:10.37,2013-07-02 21:27:00,
2013-07-02 16:32:00,77.0,52.8,30.07,NW,323,0.0,1.2,43,0.00,SCT,,0.00,526.0,WeatherDisplay:10.37,2013-07-02 21:32:00,
2013-07-02 16:37:00,77.0,52.8,30.07,East,93,0.0,0.0,43,0.00,SCT,,0.00,584.0,WeatherDisplay:10.37,2013-07-02 21:37:00,
2013-07-02 16:42:00,77.2,51.7,30.07,East,86,1.0,5.0,41,0.00,FEW,,0.00,656.0,WeatherDisplay:10.37,2013-07-02 21:42:00,
2013-07-02 16:47:00,77.4,53.1,30.07,NNW,336,0.0,2.0,43,0.00,CLR,,0.00,664.0,WeatherDisplay:10.37,2013-07-02 21:47:00,
2013-07-02 16:52:00,77.7,53.4,30.07,North,355,0.1,5.8,43,0.00,CLR,,0.00,548.0,WeatherDisplay:10.37,2013-07-02 21:52:00,
2013-07-02 16:57:00,77.4,53.2,30.07,ENE,68,0.0,7.0,43,0.00,BKN,,0.00,244.0,WeatherDisplay:10.37,2013-07-02 21:57:00,
2013-07-02 17:02:00,77.2,53.6,30.07,NNE,20,0.1,1.2,44,0.00,BKN,,0.00,309.0,WeatherDisplay:10.37,2013-07-02 22:02:00,
2013-07-02 17:07:00,76.8,53.2,30.07,NE,56,0.0,0.0,44,0.00,BKN,,0.00,250.0,WeatherDisplay:10.37,2013-07-02 22:07:00,
2013-07-02 17:12:00,76.8,52.6,30.07,NE,42,0.0,0.0,43,0.00,BKN,,0.00,227.0,WeatherDisplay:10.37,2013-07-02 22:12:00,
2013-07-02 17:17:00,76.5,53.0,30.07,ENE,65,0.0,0.0,44,0.00,BKN,,0.00,211.0,WeatherDisplay:10.37,2013-07-02 22:17:00,
2013-07-02 17:22:00,76.3,53.4,30.07,East,86,1.3,6.0,45,0.00,BKN,,0.00,260.0,WeatherDisplay:10.37,2013-07-02 22:22:00,
2013-07-02 17:27:00,75.6,52.1,30.07,SSW,201,1.2,6.0,44,0.00,BKN,,0.00,265.0,WeatherDisplay:10.37,2013-07-02 22:27:00,
2013-07-02 17:32:00,75.1,52.3,30.07,SSE,162,0.1,1.2,45,0.00,SCT,,0.00,380.0,WeatherDisplay:10.37,2013-07-02 22:32:00,
2013-07-02 17:37:00,74.9,50.9,30.07,SE,128,0.0,1.2,43,0.00,SCT,,0.00,318.0,WeatherDisplay:10.37,2013-07-02 22:37:00,
2013-07-02 17:42:00,75.1,51.1,30.07,East,80,0.2,2.4,43,0.00,SCT,,0.00,436.0,WeatherDisplay:10.37,2013-07-02 22:42:00,
2013-07-02 17:47:00,75.4,52.0,30.07,South,188,0.0,2.4,44,0.00,FEW,,0.00,422.0,WeatherDisplay:10.37,2013-07-02 22:47:00,
2013-07-02 17:52:00,75.6,52.1,30.07,ESE,111,0.1,1.2,44,0.00,FEW,,0.00,390.0,WeatherDisplay:10.37,2013-07-02 22:52:00,
2013-07-02 17:57:00,75.8,52.9,30.07,ESE,102,0.0,0.0,45,0.00,FEW,,0.00,392.0,WeatherDisplay:10.37,2013-07-02 22:57:00,
2013-07-02 18:02:00,76.0,51.9,30.06,East,90,0.1,1.2,43,0.00,FEW,,0.00,422.0,WeatherDisplay:10.37,2013-07-02 23:02:00,
2013-07-02 18:07:00,76.0,51.2,30.06,ESE,109,0.0,1.2,42,0.00,FEW,,0.00,439.0,WeatherDisplay:10.37,2013-07-02 23:07:00,
2013-07-02 18:12:00,75.6,49.6,30.06,East,85,2.3,6.0,40,0.00,FEW,,0.00,411.0,WeatherDisplay:10.37,2013-07-02 23:12:00,
2013-07-02 18:17:00,75.4,50.1,30.06,ENE,71,0.1,1.2,41,0.00,FEW,,0.00,406.0,WeatherDisplay:10.37,2013-07-02 23:17:00,
2013-07-02 18:22:00,75.8,49.8,30.06,ESE,106,0.1,1.2,40,0.00,FEW,,0.00,399.0,WeatherDisplay:10.37,2013-07-02 23:22:00,
2013-07-02 18:27:00,76.3,50.2,30.06,East,82,0.1,1.2,40,0.00,FEW,,0.00,383.0,WeatherDisplay:10.37,2013-07-02 23:27:00,
2013-07-02 18:31:00,76.5,50.4,30.06,ENE,77,0.4,1.2,40,0.00,FEW,,0.00,369.0,WeatherDisplay:10.37,2013-07-02 23:31:00,
2013-07-02 18:36:00,76.3,49.5,30.06,East,85,2.3,4.6,39,0.00,FEW,,0.00,341.0,WeatherDisplay:10.37,2013-07-02 23:36:00,
2013-07-02 18:41:00,75.8,49.8,30.06,ESE,107,0.3,6.0,40,0.00,FEW,,0.00,330.0,WeatherDisplay:10.37,2013-07-02 23:41:00,
2013-07-02 18:46:00,75.6,48.9,30.06,East,89,1.3,4.6,39,0.00,FEW,,0.00,306.0,WeatherDisplay:10.37,2013-07-02 23:46:00,
2013-07-02 18:51:00,75.4,48.0,30.06,NE,36,0.1,4.6,38,0.00,FEW,,0.00,288.0,WeatherDisplay:10.37,2013-07-02 23:51:00,
2013-07-02 18:54:00,75.3,48.6,30.06,NE,53,0.4,2.3,39,0.00,FEW,,0.00,274.0,WeatherDisplay:10.37,2013-07-02 23:54:00,
2013-07-02 18:59:00,74.9,46.9,30.06,NE,52,1.3,4.6,37,0.00,FEW,,0.00,251.0,WeatherDisplay:10.37,2013-07-02 23:59:00,
2013-07-02 19:01:00,74.9,48.3,30.06,East,83,1.2,3.6,39,0.00,FEW,,0.00,246.0,WeatherDisplay:10.37,2013-07-03 00:01:00,
2013-07-02 19:06:00,74.6,47.3,30.06,East,85,1.3,4.8,38,0.00,FEW,,0.00,207.0,WeatherDisplay:10.37,2013-07-03 00:06:00,
2013-07-02 19:07:00,74.4,47.1,30.06,East,85,0.4,4.6,38,0.00,FEW,,0.00,186.0,WeatherDisplay:10.37,2013-07-03 00:07:00,
2013-07-02 19:12:00,74.2,47.6,30.06,ENE,78,0.3,3.6,39,0.00,FEW,,0.00,162.0,WeatherDisplay:10.37,2013-07-03 00:12:00,
2013-07-02 19:17:00,73.9,46.7,30.07,East,90,0.0,0.0,38,0.00,FEW,,0.00,120.0,WeatherDisplay:10.37,2013-07-03 00:17:00,
2013-07-02 19:22:00,73.7,47.2,30.07,East,84,0.0,0.0,39,0.00,FEW,,0.00,58.0,WeatherDisplay:10.37,2013-07-03 00:22:00,
2013-07-02 19:24:00,73.5,47.0,30.07,East,84,0.0,0.0,39,0.00,FEW,,0.00,54.0,WeatherDisplay:10.37,2013-07-03 00:24:00,
2013-07-02 19:29:00,73.3,47.5,30.07,East,84,0.0,0.0,40,0.00,FEW,,0.00,40.0,WeatherDisplay:10.37,2013-07-03 00:29:00,
2013-07-02 19:33:00,73.0,47.2,30.07,East,84,0.0,0.0,40,0.00,FEW,,0.00,37.0,WeatherDisplay:10.37,2013-07-03 00:33:00,
2013-07-02 19:38:00,72.7,47.0,30.07,East,84,0.0,0.0,40,0.00,FEW,,0.00,33.0,WeatherDisplay:10.37,2013-07-03 00:38:00,
2013-07-02 19:43:00,72.5,48.1,30.07,East,84,0.0,0.0,42,0.00,FEW,,0.00,28.0,WeatherDisplay:10.37,2013-07-03 00:43:00,
2013-07-02 19:48:00,72.1,47.1,30.07,East,84,0.0,0.0,41,0.00,FEW,,0.00,26.0,WeatherDisplay:10.37,2013-07-03 00:48:00,
2013-07-02 19:53:00,71.8,47.5,30.07,East,84,0.0,0.0,42,0.00,FEW,,0.00,25.0,WeatherDisplay:10.37,2013-07-03 00:53:00,
2013-07-02 19:58:00,71.5,47.8,30.07,East,84,0.0,0.0,43,0.00,FEW,,0.00,23.0,WeatherDisplay:10.37,2013-07-03 00:58:00,
2013-07-02 20:00:00,71.3,47.6,30.07,East,84,0.0,0.0,43,0.00,FEW,,0.00,23.0,WeatherDisplay:10.37,2013-07-03 01:00:00,
2013-07-02 20:03:00,71.1,47.5,30.07,East,84,0.0,1.2,43,0.00,FEW,,0.00,21.0,WeatherDisplay:10.37,2013-07-03 01:03:00,
2013-07-02 20:08:00,70.6,47.6,30.07,East,84,0.0,0.0,44,0.00,FEW,,0.00,19.0,WeatherDisplay:10.37,2013-07-03 01:08:00,
2013-07-02 20:09:00,70.6,47.6,30.07,East,84,0.0,0.0,44,0.00,FEW,,0.00,19.0,WeatherDisplay:10.37,2013-07-03 01:09:00,
2013-07-02 20:14:00,70.3,47.9,30.07,East,84,0.0,0.0,45,0.00,FEW,,0.00,18.0,WeatherDisplay:10.37,2013-07-03 01:14:00,
2013-07-02 20:19:00,69.9,48.7,30.07,East,84,0.0,0.0,47,0.00,FEW,,0.00,16.0,WeatherDisplay:10.37,2013-07-03 01:19:00,
2013-07-02 20:24:00,69.6,49.0,30.07,East,84,0.0,0.0,48,0.00,FEW,,0.00,14.0,WeatherDisplay:10.37,2013-07-03 01:24:00,
2013-07-02 20:26:00,69.4,48.9,30.07,East,84,0.0,0.0,48,0.00,FEW,,0.00,12.0,WeatherDisplay:10.37,2013-07-03 01:26:00,
2013-07-02 20:31:00,69.1,49.1,30.06,East,84,0.0,0.0,49,0.00,FEW,,0.00,11.0,WeatherDisplay:10.37,2013-07-03 01:31:00,
2013-07-02 20:36:00,68.8,49.4,30.06,East,84,0.0,0.0,50,0.00,FEW,,0.00,7.0,WeatherDisplay:10.37,2013-07-03 01:36:00,
2013-07-02 20:41:00,68.6,49.2,30.06,East,84,0.0,0.0,50,0.00,FEW,,0.00,5.0,WeatherDisplay:10.37,2013-07-03 01:41:00,
2013-07-02 20:46:00,68.3,49.5,30.06,East,84,0.0,0.0,51,0.00,FEW,,0.00,0.0,WeatherDisplay:10.37,2013-07-03 01:46:00,
2013-07-02 20:50:00,67.9,49.6,30.06,East,84,0.0,0.0,52,0.00,FEW,,0.00,0.0,WeatherDisplay:10.37,2013-07-03 01:50:00,
2013-07-02 20:51:00,67.9,49.6,30.06,East,84,0.0,0.0,52,0.00,FEW,,0.00,0.0,WeatherDisplay:10.37,2013-07-03 01:51:00,
2013-07-02 20:56:00,67.6,49.9,30.06,East,84,0.0,0.0,53,0.00,FEW,,0.00,0.0,WeatherDisplay:10.37,2013-07-03 01:56:00,
2013-07-02 21:01:00,67.1,49.9,30.07,East,84,0.0,0.0,54,0.00,FEW,,0.00,0.0,WeatherDisplay:10.37,2013-07-03 02:01:00,
2013-07-02 21:06:00,66.9,50.2,30.07,East,84,0.0,0.0,55,0.00,FEW,,0.00,0.0,WeatherDisplay:10.37,2013-07-03 02:06:00,
2013-07-02 21:11:00,66.6,50.9,30.07,East,84,0.0,0.0,57,0.00,FEW,,0.00,0.0,WeatherDisplay:10.37,2013-07-03 02:11:00,
2013-07-02 21:16:00,66.1,50.4,30.07,East,84,0.0,0.0,57,0.00,FEW,,0.00,0.0,WeatherDisplay:10.37,2013-07-03 02:16:00,
2013-07-02 21:21:00,65.6,50.9,30.07,East,84,0.0,0.0,59,0.00,FEW,,0.00,0.0,WeatherDisplay:10.37,2013-07-03 02:21:00,
2013-07-02 21:27:00,65.3,51.1,30.07,East,84,0.0,0.0,60,0.00,FEW,,0.00,0.0,WeatherDisplay:10.37,2013-07-03 02:27:00,
2013-07-02 21:32:00,65.0,51.7,30.07,East,84,0.0,0.0,62,0.00,FEW,,0.00,0.0,WeatherDisplay:10.37,2013-07-03 02:32:00,
2013-07-02 21:37:00,64.7,51.8,30.07,East,84,0.0,0.0,63,0.00,FEW,,0.00,0.0,WeatherDisplay:10.37,2013-07-03 02:37:00,
2013-07-02 21:42:00,64.3,51.4,30.07,East,84,0.0,0.0,63,0.00,FEW,,0.00,0.0,WeatherDisplay:10.37,2013-07-03 02:42:00,
2013-07-02 21:46:00,64.2,51.3,30.07,East,84,0.0,0.0,63,0.00,FEW,,0.00,0.0,WeatherDisplay:10.37,2013-07-03 02:46:00,
2013-07-02 21:51:00,63.9,51.5,30.07,East,84,0.0,0.0,64,0.00,FEW,,0.00,0.0,WeatherDisplay:10.37,2013-07-03 02:51:00,
2013-07-02 21:56:00,63.7,51.7,30.07,East,84,0.0,0.0,65,0.00,FEW,,0.00,0.0,WeatherDisplay:10.37,2013-07-03 02:56:00,
2013-07-02 22:01:00,63.4,52.2,30.07,East,84,0.0,0.0,67,0.00,FEW,,0.00,0.0,WeatherDisplay:10.37,2013-07-03 03:01:00,
2013-07-02 22:05:00,63.2,51.6,30.07,East,84,0.0,0.0,66,0.00,FEW,,0.00,0.0,WeatherDisplay:10.37,2013-07-03 03:05:00,
2013-07-02 22:10:00,62.9,51.8,30.07,East,84,0.0,0.0,67,0.00,FEW,,0.00,0.0,WeatherDisplay:10.37,2013-07-03 03:10:00,
2013-07-02 22:15:00,62.4,52.1,30.08,East,84,0.0,0.0,69,0.00,FEW,,0.00,0.0,WeatherDisplay:10.37,2013-07-03 03:15:00,
2013-07-02 22:20:00,62.1,51.8,30.08,East,84,0.0,0.0,69,0.00,FEW,,0.00,0.0,WeatherDisplay:10.37,2013-07-03 03:20:00,
2013-07-02 22:25:00,62.1,52.2,30.08,East,84,0.0,0.0,70,0.00,FEW,,0.00,0.0,WeatherDisplay:10.37,2013-07-03 03:25:00,
2013-07-02 22:30:00,62.0,52.1,30.09,East,84,0.0,0.0,70,0.00,FEW,,0.00,0.0,WeatherDisplay:10.37,2013-07-03 03:30:00,
2013-07-02 22:35:00,61.8,51.9,30.09,East,84,0.0,0.0,70,0.00,FEW,,0.00,0.0,WeatherDisplay:10.37,2013-07-03 03:35:00,
2013-07-02 22:36:00,61.8,51.9,30.09,East,84,0.0,0.0,70,0.00,FEW,,0.00,0.0,WeatherDisplay:10.37,2013-07-03 03:36:00,
2013-07-02 22:39:00,61.6,51.7,30.09,East,84,0.0,0.0,70,0.00,FEW,,0.00,0.0,WeatherDisplay:10.37,2013-07-03 03:39:00,
2013-07-02 22:44:00,61.5,52.4,30.08,East,84,0.0,0.0,72,0.00,FEW,,0.00,0.0,WeatherDisplay:10.37,2013-07-03 03:44:00,
2013-07-02 22:49:00,61.3,52.6,30.08,East,84,0.0,0.0,73,0.00,FEW,,0.00,0.0,WeatherDisplay:10.37,2013-07-03 03:49:00,
2013-07-02 22:55:00,61.0,52.3,30.08,East,84,0.0,0.0,73,0.00,FEW,,0.00,0.0,WeatherDisplay:10.37,2013-07-03 03:55:00,
2013-07-02 23:00:00,60.9,52.6,30.09,East,84,0.0,0.0,74,0.00,FEW,,0.00,0.0,WeatherDisplay:10.37,2013-07-03 04:00:00,
2013-07-02 23:01:00,60.7,52.4,30.09,East,84,0.0,0.0,74,0.00,FEW,,0.00,0.0,WeatherDisplay:10.37,2013-07-03 04:01:00,
2013-07-02 23:02:00,60.7,52.0,30.09,East,84,0.0,0.0,73,0.00,FEW,,0.00,0.0,WeatherDisplay:10.37,2013-07-03 04:02:00,
2013-07-02 23:05:00,60.5,51.8,30.09,East,84,0.0,0.0,73,0.00,FEW,,0.00,0.0,WeatherDisplay:10.37,2013-07-03 04:05:00,
2013-07-02 23:06:00,60.5,51.8,30.09,East,84,0.0,0.0,73,0.00,FEW,,0.00,0.0,WeatherDisplay:10.37,2013-07-03 04:06:00,
2013-07-02 23:09:00,60.5,51.8,30.09,East,84,0.0,0.0,73,0.00,FEW,,0.00,0.0,WeatherDisplay:10.37,2013-07-03 04:09:00,
2013-07-02 23:14:00,60.4,51.3,30.08,East,84,0.0,0.0,72,0.00,FEW,,0.00,0.0,WeatherDisplay:10.37,2013-07-03 04:14:00,
2013-07-02 23:19:00,60.2,51.1,30.08,East,84,0.0,0.0,72,0.00,FEW,,0.00,0.0,WeatherDisplay:10.37,2013-07-03 04:19:00,
2013-07-02 23:24:00,60.1,51.0,30.08,East,84,0.0,0.0,72,0.00,FEW,,0.00,0.0,WeatherDisplay:10.37,2013-07-03 04:24:00,
2013-07-02 23:29:00,59.9,50.8,30.09,East,84,0.0,0.0,72,0.00,FEW,,0.00,0.0,WeatherDisplay:10.37,2013-07-03 04:29:00,
2013-07-02 23:31:00,59.8,50.8,30.09,East,84,0.0,0.0,72,0.00,FEW,,0.00,0.0,WeatherDisplay:10.37,2013-07-03 04:31:00,
2013-07-02 23:32:00,59.8,50.8,30.09,East,84,0.0,0.0,72,0.00,FEW,,0.00,0.0,WeatherDisplay:10.37,2013-07-03 04:32:00,
2013-07-02 23:37:00,59.6,50.6,30.09,East,84,0.0,0.0,72,0.00,FEW,,0.00,0.0,WeatherDisplay:10.37,2013-07-03 04:37:00,
2013-07-02 23:42:00,59.5,50.5,30.09,East,84,0.0,0.0,72,0.00,FEW,,0.00,0.0,WeatherDisplay:10.37,2013-07-03 04:42:00,
2013-07-02 23:45:00,59.3,50.3,30.09,East,84,0.0,0.0,72,0.00,FEW,,0.00,0.0,WeatherDisplay:10.37,2013-07-03 04:45:00,
2013-07-02 23:49:00,59.2,50.5,30.09,East,84,0.0,0.0,73,0.00,FEW,,0.00,0.0,WeatherDisplay:10.37,2013-07-03 04:49:00,
2013-07-02 23:54:00,58.9,50.3,30.09,East,84,0.0,0.0,73,0.00,FEW,,0.00,0.0,WeatherDisplay:10.37,2013-07-03 04:54:00,
2013-07-02 23:55:00,58.9,50.3,30.09,East,84,0.0,0.0,73,0.00,FEW,,0.00,0.0,WeatherDisplay:10.37,2013-07-03 04:55:00,